Stündliche Wetter Homichi

Heute, 16 Juni, Mittwoch

Zeit Temperatur Niederschläge Wind Luftdruck Luftfeuchtigkeit
00:00 +15°C° 0 mm 2 m/S 740 mmHg 94%
01:00 +15°C° 0 mm 2 m/S 740 mmHg 94%
02:00 +14°C° 0 mm 2 m/S 741 mmHg 94%
03:00 +14°C° 0 mm 2 m/S 741 mmHg 93%
04:00 +12°C° 0 mm 3 m/S 741 mmHg 93%
05:00 +11°C° 0 mm 3 m/S 741 mmHg 92%
06:00 +12°C° 0 mm 3 m/S 741 mmHg 86%
07:00 +13°C° 0 mm 3 m/S 741 mmHg 80%
08:00 +14°C° 0 mm 3 m/S 742 mmHg 74%
09:00 +17°C° 0 mm 3 m/S 742 mmHg 69%
10:00 +18°C° 0 mm 3 m/S 742 mmHg 63%
11:00 +19°C° 0 mm 3 m/S 742 mmHg 58%
12:00 +20°C° 0 mm 3 m/S 742 mmHg 56%
13:00 +20°C° 0 mm 3 m/S 743 mmHg 53%
14:00 +21°C° 0 mm 3 m/S 743 mmHg 51%
15:00 +21°C° 0 mm 3 m/S 743 mmHg 53%
16:00 +21°C° 0 mm 3 m/S 743 mmHg 55%
17:00 +21°C° 0 mm 3 m/S 743 mmHg 57%
18:00 +19°C° 0 mm 3 m/S 743 mmHg 64%
19:00 +18°C° 0 mm 3 m/S 743 mmHg 71%
20:00 +16°C° 0 mm 2 m/S 743 mmHg 77%
21:00 +15°C° 0 mm 2 m/S 743 mmHg 77%
22:00 +14°C° 0 mm 2 m/S 744 mmHg 77%
23:00 +13°C° 0 mm 2 m/S 744 mmHg 76%

Morgen, 17 Juni, Donnerstag

Zeit Temperatur Niederschläge Wind Luftdruck Luftfeuchtigkeit
00:00 +12°C° 0 mm 2 m/S 744 mmHg 77%
01:00 +12°C° 0 mm 2 m/S 744 mmHg 78%
02:00 +12°C° 0 mm 2 m/S 745 mmHg 79%
03:00 +12°C° 0 mm 2 m/S 745 mmHg 79%
04:00 +12°C° 0 mm 2 m/S 745 mmHg 80%
05:00 +12°C° 0 mm 2 m/S 745 mmHg 80%
06:00 +14°C° 0 mm 2 m/S 745 mmHg 75%
07:00 +16°C° 0 mm 2 m/S 746 mmHg 70%
08:00 +18°C° 0 mm 2 m/S 746 mmHg 65%
09:00 +20°C° 0 mm 2 m/S 746 mmHg 61%
10:00 +21°C° 0 mm 2 m/S 746 mmHg 57%
11:00 +23°C° 0 mm 2 m/S 747 mmHg 53%
12:00 +24°C° 0 mm 2 m/S 747 mmHg 52%
13:00 +24°C° 0 mm 2 m/S 747 mmHg 50%
14:00 +25°C° 0 mm 2 m/S 747 mmHg 48%
15:00 +25°C° 0 mm 2 m/S 747 mmHg 50%
16:00 +25°C° 0 mm 2 m/S 747 mmHg 53%
17:00 +25°C° 0 mm 2 m/S 746 mmHg 55%
18:00 +23°C° 0 mm 2 m/S 746 mmHg 61%
19:00 +21°C° 0 mm 2 m/S 747 mmHg 67%
20:00 +19°C° 0 mm 2 m/S 747 mmHg 73%
21:00 +18°C° 0 mm 2 m/S 747 mmHg 76%
22:00 +17°C° 0 mm 2 m/S 747 mmHg 80%
23:00 +16°C° 0 mm 2 m/S 747 mmHg 83%

übermorgen, 18 Juni, Freitag

Zeit Temperatur Niederschläge Wind Luftdruck Luftfeuchtigkeit
00:00 +15°C° 0 mm 2 m/S 747 mmHg 84%
01:00 +15°C° 0 mm 2 m/S 747 mmHg 86%
02:00 +14°C° 0 mm 2 m/S 747 mmHg 88%
03:00 +14°C° 0 mm 2 m/S 747 mmHg 88%
04:00 +15°C° 0 mm 2 m/S 747 mmHg 88%
05:00 +15°C° 0 mm 2 m/S 747 mmHg 88%
06:00 +17°C° 0 mm 2 m/S 748 mmHg 82%
07:00 +18°C° 0 mm 3 m/S 748 mmHg 77%
08:00 +20°C° 0 mm 3 m/S 748 mmHg 71%
09:00 +21°C° 0 mm 3 m/S 748 mmHg 66%
10:00 +23°C° 0 mm 4 m/S 748 mmHg 61%
11:00 +25°C° 0 mm 4 m/S 748 mmHg 57%
12:00 +25°C° 0 mm 4 m/S 748 mmHg 55%
13:00 +26°C° 0 mm 4 m/S 747 mmHg 53%
14:00 +26°C° 0 mm 4 m/S 747 mmHg 50%
15:00 +26°C° 0 mm 3 m/S 747 mmHg 53%
16:00 +26°C° 0 mm 3 m/S 747 mmHg 56%
17:00 +26°C° 0 mm 3 m/S 747 mmHg 58%
18:00 +24°C° 0 mm 3 m/S 746 mmHg 65%
19:00 +21°C° 0 mm 3 m/S 746 mmHg 72%
20:00 +20°C° 0 mm 2 m/S 746 mmHg 79%
21:00 +18°C° 0 mm 2 m/S 746 mmHg 82%
22:00 +17°C° 0 mm 3 m/S 747 mmHg 85%
23:00 +16°C° 0 mm 3 m/S 747 mmHg 87%

19 Juni, Samstag

Zeit Temperatur Niederschläge Wind Luftdruck Luftfeuchtigkeit
00:00 +16°C° 0 mm 3 m/S 747 mmHg 89%
01:00 +15°C° 0 mm 2 m/S 747 mmHg 90%
02:00 +15°C° 0 mm 2 m/S 747 mmHg 92%
03:00 +15°C° 0 mm 2 m/S 747 mmHg 92%
04:00 +15°C° 0 mm 2 m/S 747 mmHg 91%
05:00 +15°C° 0 mm 2 m/S 747 mmHg 91%
06:00 +17°C° 0 mm 3 m/S 747 mmHg 86%
07:00 +19°C° 0 mm 3 m/S 747 mmHg 81%
08:00 +20°C° 0 mm 3 m/S 747 mmHg 76%
09:00 +22°C° 0 mm 4 m/S 747 mmHg 70%
10:00 +23°C° 0 mm 4 m/S 747 mmHg 65%
11:00 +25°C° 0 mm 4 m/S 747 mmHg 60%
12:00 +26°C° 0 mm 4 m/S 747 mmHg 58%
13:00 +26°C° 0 mm 4 m/S 747 mmHg 55%
14:00 +27°C° 0 mm 3 m/S 746 mmHg 53%
15:00 +27°C° 0 mm 3 m/S 746 mmHg 55%
16:00 +27°C° 0 mm 3 m/S 746 mmHg 57%
17:00 +27°C° 0 mm 3 m/S 746 mmHg 60%
18:00 +25°C° 0 mm 2 m/S 746 mmHg 66%
19:00 +24°C° 0 mm 2 m/S 746 mmHg 72%
20:00 +21°C° 0 mm 2 m/S 745 mmHg 78%
21:00 +20°C° 0 mm 2 m/S 746 mmHg 81%
22:00 +19°C° 0 mm 2 m/S 746 mmHg 84%
23:00 +18°C° 0 mm 3 m/S 746 mmHg 87%

20 Juni, Sonntag

Zeit Temperatur Niederschläge Wind Luftdruck Luftfeuchtigkeit
00:00 +17°C° 0 mm 3 m/S 746 mmHg 89%
01:00 +17°C° 0 mm 3 m/S 746 mmHg 91%
02:00 +16°C° 0 mm 2 m/S 746 mmHg 93%
03:00 +16°C° 0 mm 2 m/S 746 mmHg 93%
04:00 +16°C° 0 mm 2 m/S 746 mmHg 94%
05:00 +16°C° 0 mm 2 m/S 746 mmHg 94%
06:00 +18°C° 0 mm 2 m/S 746 mmHg 89%
07:00 +20°C° 0 mm 3 m/S 746 mmHg 83%
08:00 +22°C° 0 mm 3 m/S 746 mmHg 78%
09:00 +24°C° 0 mm 3 m/S 746 mmHg 73%
10:00 +25°C° 0 mm 3 m/S 746 mmHg 69%
11:00 +26°C° 0 mm 3 m/S 746 mmHg 65%
12:00 +27°C° 0 mm 3 m/S 745 mmHg 61%
13:00 +27°C° 0 mm 3 m/S 745 mmHg 58%
14:00 +28°C° 0 mm 3 m/S 745 mmHg 55%
15:00 +27°C° 0 mm 3 m/S 745 mmHg 58%
16:00 +27°C° 0 mm 2 m/S 745 mmHg 60%
17:00 +27°C° 0 mm 2 m/S 744 mmHg 63%
18:00 +26°C° 0 mm 2 m/S 744 mmHg 69%
19:00 +24°C° 0 mm 2 m/S 744 mmHg 74%
20:00 +23°C° 0 mm 2 m/S 744 mmHg 79%
21:00 +21°C° 0 mm 2 m/S 744 mmHg 82%
22:00 +20°C° 0 mm 2 m/S 744 mmHg 84%
23:00 +19°C° 0 mm 2 m/S 744 mmHg 87%

21 Juni, Montag

Zeit Temperatur Niederschläge Wind Luftdruck Luftfeuchtigkeit
00:00 +18°C° 0 mm 2 m/S 744 mmHg 88%
01:00 +18°C° 0 mm 2 m/S 744 mmHg 90%
02:00 +17°C° 0 mm 2 m/S 744 mmHg 91%
03:00 +18°C° 0 mm 2 m/S 744 mmHg 91%
04:00 +18°C° 0 mm 2 m/S 744 mmHg 91%
05:00 +18°C° 0 mm 2 m/S 744 mmHg 91%
06:00 +19°C° 0 mm 2 m/S 744 mmHg 85%
07:00 +21°C° 0 mm 2 m/S 744 mmHg 79%
08:00 +24°C° 0 mm 2 m/S 744 mmHg 74%
09:00 +25°C° 0 mm 3 m/S 744 mmHg 70%
10:00 +26°C° 0 mm 3 m/S 744 mmHg 66%
11:00 +27°C° 0 mm 3 m/S 744 mmHg 62%
12:00 +27°C° 0 mm 3 m/S 744 mmHg 60%
13:00 +28°C° 0 mm 4 m/S 743 mmHg 58%
14:00 +28°C° 0 mm 4 m/S 743 mmHg 56%
15:00 +28°C° 0 mm 4 m/S 743 mmHg 58%
16:00 +28°C° 0 mm 4 m/S 743 mmHg 60%
17:00 +28°C° 0 mm 4 m/S 742 mmHg 62%
18:00 +26°C° 0 mm 3 m/S 742 mmHg 67%
19:00 +25°C° 0 mm 3 m/S 742 mmHg 73%
20:00 +22°C° 0 mm 3 m/S 742 mmHg 78%
21:00 +21°C° 0 mm 3 m/S 742 mmHg 81%
22:00 +20°C° 0 mm 3 m/S 741 mmHg 83%
23:00 +19°C° 0 mm 3 m/S 741 mmHg 85%
Mehr zeigen

Wir brauchen deine Erlaubnis

Meteoprog und unser Service Anbieter werden persönliche Daten aufbewahren, so wie Cookies, Geräte Bezeichnung oder ähnliche Technologien von deinem Gerät und Prozess, so wie Persönliche Daten Inhalte und Werbungen, genauso wie social Media und den Verkehr zu analysieren.

  • Aufbewahrung und/oder Zugang zu deiner Geräte Informationen.

    Cookies, Geräte Bezeichnung oder andere Informationen, können aufbewahrt oder Zugang zu deinem Gerät erhalten, für den Grund, der oben angegeben wird.

  • Personalisierte Werbung und Inhalte, Messungen, Einblick in das Publikum und Produkt Entwicklung.

    Werbungen und Inhalte können personalisiert werden, basierend auf ein Profil. Mehr Daten können besser personalisierte Werbungen und Inhalte hinzufügen. Werbung und Inhalte können gezeigt und gemessen werden. Einblicke über das Publikum, welche die Werbung gesehen haben und den Inhalt, können abgeleitet werden. So wie Daten können genutzt werden, um es zu verbessern oder die Benutzer Erfahrung zu verbessern das System und die Software.

Wenn du “Ich stimme zu” klickst, erlaubst du uns, die Cookies zu benutzen die Geräte Bezeichnung, den Web oder ähnliche Technologien zu benutzen. Deine Settings, können in deinem Gerät bei deinem Browser geändert werden.

Für den bestimmten Zweck, berechtigten Interessen beruhen darauf, mehr als auf den Inhalt. Du kannst mehr darüber in unseren Privaten und Cookie Politik lesen.